STARLINK-11319, 61251

Orbit data source: Space-Track

STARLINK-11319, 61251 is a payload satellite owned by SpaceX/Seattle (US) in LEO that was launched on Wed, 25 Sep 2024 UTC via an FALCON 9 launch vehicle from the Air Force Western Test Range (AFWTR). Payload-class satellites include a variety of spacecraft equipped with specific instruments for various scientific and technological missions. These include communications satellites like Starlink; space stations such as the ISS; scientific satellites like the Hubble; Earth observation satellites from companies like Planet Labs, Umbra, and HawkEye 360; GPS; miniature CubeSats for education and research; and military/defense satellites.

Loading next visibility...
Identifier
61251, 2024-175J
Orbit
LEO
Last TLE update
16 hours ago
Origin
Manufacturer
SpaceX/Seattle
Mission
Operational Commercial Communications
Bus & Motor
STARLINK V2M, Unknown motor
Mass
730 kg wet, ~700 kg dry
Launch date (UTC)
2024-09-25 (9 months ago)
Launch vehicle
FALCON 9
Launch site
Air Force Western Test Range (AFWTR)
Object type
Payload
Rocket body
Debris
Shape & HBR
Box + 2 Pan, 29 m
Radar Cross Section
36.964 m², Large (>1 m²)

Expand to show TLE details & history

TLE from 16 hours ago
0 STARLINK-11319
1 61251U 24175J   25187.29792417  .00000254  00000-0  69571-5 0  9992
2 61251  53.1585 191.1933 0001295 109.0042 251.1117 15.69711333 44661
Epoch: 2025-07-06T07:09Z
TLE epoch observation values (Epoch: 2025-07-06T07:09:00.648Z)
Latitude
0.00005°
Longitude
159.41701°
Altitude
360.92 km
Speed
7.694 km/s
True Right ascension
12h 44m 46s
True Declination
0° 00' 00"
Sunlit
Object was in daylight at epoch
Visualization orbit readout
Latitude
50.8083°
Longitude
-137.75804°
Altitude
365.002 km
Speed
7.697 km/s
Apparent Right ascension
20h 05m 34s
Apparent Declination
9° 39' 43"
Sunlit
Object is in daylight
Visualization observer readout
Local Sidereal Time
10:45:07
Azimuth
45.831° ENE
Elevation
-28.195°
Doppler factor
1
Orbital elements
Apogee altitude
360.856 km
Perigee altitude
359.111 km
Semi-major axis
6,738.121 km
Eccentricity
0.00013
Inclination
53.1585°
RAAN
191.1933°
Arg. of periapsis
109.0042°
True anomaly
Unknown
Mean anomaly
251.1117°
Eccentric anomaly
Unknown
Mean motion
3.92405 °/min
Orbital period
91.74 mins
BSTAR
0.0000069571
Loading maneuver chart data...
Loading SW <> Apogee altitude chart data...
Loading historical data...
Loading historical data...
Loading historical data...
Loading historical data...
Loading historical data...
Loading historical data...
Loading historical data...

STARLINK-11319 Visibility forecast

Observer location: undefined°, undefined°

Span
Click to sort rows by Start time (UTC) header in descending order
Start Az.
Max El. time (UTC)
Max El. Az.
Max El.
End time (UTC)
End Az.
4 mins2025-07-07 03:12:56.540Z242.673° WSW2025-07-07 03:14:56.540Z326.396° NNW41.862°2025-07-07 03:16:56.540Z41.056° NE
4 mins2025-07-07 09:37:56.540Z315.985° NNW2025-07-07 09:39:56.540Z95.362° ESE42.276°2025-07-07 09:41:56.540Z124.688° SE
|